This is the latest recevied weather packets stored in our database for station/object DB8NZ-22. If no packets are shown the sender has not sent any weather packets the latest 10 day(s).
| Time | Temp. | Humidity | Pressure | Rain* | Wind** | Luminosity | Snow |
|---|---|---|---|---|---|---|---|
| 1777699527 | 8.89° C | 55% | 1024.1 hPa | - | - | - | - |
| 1777698627 | 7.78° C | 55% | 1024.2 hPa | - | - | - | - |
| 1777697727 | 7.22° C | 55% | 1024.4 hPa | - | - | - | - |
| 1777696827 | 6.67° C | 55% | 1024.3 hPa | - | - | - | - |
| 1777695927 | 6.67° C | 56% | 1024.2 hPa | - | - | - | - |
| 1777695429 | 6.67° C | 55% | 1024.3 hPa | - | - | - | - |
| 1777694528 | 6.67° C | 55% | 1024.4 hPa | - | - | - | - |
| 1777693628 | 6.67° C | 55% | 1024.4 hPa | - | - | - | - |
| 1777692728 | 7.22° C | 55% | 1024.4 hPa | - | - | - | - |
| 1777691827 | 7.22° C | 54% | 1024.5 hPa | - | - | - | - |
| 1777690927 | 7.22° C | 54% | 1024.7 hPa | - | - | - | - |
| 1777688227 | 7.78° C | 53% | 1024.7 hPa | - | - | - | - |
| 1777687326 | 8.33° C | 52% | 1024.9 hPa | - | - | - | - |
| 1777686426 | 8.33° C | 52% | 1024.9 hPa | - | - | - | - |
| 1777685525 | 8.33° C | 52% | 1024.9 hPa | - | - | - | - |
| 1777684624 | 8.89° C | 51% | 1025 hPa | - | - | - | - |
| 1777683723 | 8.89° C | 50% | 1025 hPa | - | - | - | - |
| 1777682822 | 9.44° C | 50% | 1025 hPa | - | - | - | - |
| 1777681921 | 9.44° C | 49% | 1025.1 hPa | - | - | - | - |
| 1777681021 | 10° C | 49% | 1025 hPa | - | - | - | - |
| 1777680120 | 10° C | 48% | 1025.1 hPa | - | - | - | - |
| 1777679219 | 10.56° C | 47% | 1025.1 hPa | - | - | - | - |
| 1777678318 | 10.56° C | 46% | 1025 hPa | - | - | - | - |
| 1777677418 | 11.11° C | 45% | 1024.9 hPa | - | - | - | - |
| 1777676518 | 11.11° C | 45% | 1025.1 hPa | - | - | - | - |
* Rain since midnight (hover to see other rain measurements)
** Current wind speed in m/s (hover to see current wind gust speed)